Location: Unspecified
(0.0000°N, 0.0000°E)
Time: 18:44:49
(UTC+00:00)

COSMOS 2251 DEB - Pass Details

Date: 16 February 2026
Orbit: 744 x 1394 km, 73.9° (Epoch: 2 March)

Event Time Altitude Azimuth Distance (km) Brightness Sun altitude
Exits shadow 02:27:05 11° 78° (ENE) 3,178 ? -54.8°
Maximum altitude 02:27:24 11° 81° (E) 3,185 ? -54.7°
Drops below altitude 10° 02:28:51 10° 91° (E) 3,267 ? -54.4°
Sets 02:35:05 0° 126° (SE) 4,374 ? -52.9°
